N5CSU Weather Reports


time (UTC)temp
F
wind
direction
speed
knots
gust
knots
rain 1hr
in
rain 24hr
in
rain mn
in
humidity
%
barometer
mb
20260504032735 68 194 0.0 0.0 0.00 0.00 0.00 57 1016.5
20260504032232 68 183 0.0 0.0 0.00 0.00 0.00 57 1016.3
20260504031728 68 184 0.0 0.0 0.00 0.00 0.00 56 1016.3
20260504031226 68 195 0.0 0.0 0.00 0.00 0.00 56 1016.1
20260504030721 69 197 0.0 0.0 0.00 0.00 0.00 55 1016.4
20260504030219 69 200 0.0 0.0 0.00 0.00 0.00 55 1016.1
20260504025715 69 194 0.0 0.0 0.00 0.00 0.00 54 1016.1
20260504025212 69 180 0.0 0.0 0.00 0.00 0.00 54 1016.4
20260504024709 69 194 0.0 0.0 0.00 0.00 0.00 54 1016.0
20260504024206 69 200 0.0 0.0 0.00 0.00 0.00 53 1016.1
20260504023703 70 196 0.0 0.0 0.00 0.00 0.00 53 1016.0
20260504023158 70 191 0.0 0.0 0.00 0.00 0.00 51 1016.0
20260504022655 70 201 0.0 0.0 0.00 0.00 0.00 50 1016.4
20260504022150 71 187 0.0 0.0 0.00 0.00 0.00 51 1016.4
20260504021649 71 187 0.0 0.0 0.00 0.00 0.00 50 1016.1
20260504021145 71 193 0.0 0.0 0.00 0.00 0.00 49 1016.1
20260504020642 72 187 0.0 0.0 0.00 0.00 0.00 49 1016.3
20260504020138 72 195 0.0 0.0 0.00 0.00 0.00 48 1016.0
20260504015635 72 199 0.0 0.0 0.00 0.00 0.00 49 1015.7
20260504015131 72 198 0.0 0.0 0.00 0.00 0.00 48 1016.0
20260504014627 72 193 0.0 0.0 0.00 0.00 0.00 48 1015.9
20260504014124 72 195 0.0 0.0 0.00 0.00 0.00 49 1015.8
20260504013622 73 199 0.0 0.0 0.00 0.00 0.00 48 1016.0
20260504013119 73 205 0.0 0.0 0.00 0.00 0.00 46 1015.9
20260504012616 73 192 0.0 0.0 0.00 0.00 0.00 47 1015.8
20260504012114 74 198 0.0 0.0 0.00 0.00 0.00 46 1015.8
20260504011611 74 192 0.0 0.0 0.00 0.00 0.00 45 1015.7
20260504011107 74 199 0.0 0.0 0.00 0.00 0.00 44 1015.8
20260504010603 75 201 0.0 0.0 0.00 0.00 0.00 44 1016.0
20260504010059 75 195 0.0 0.0 0.00 0.00 0.00 45 1015.8
20260504005555 75 194 0.0 0.0 0.00 0.00 0.00 44 1015.7
20260504005053 75 190 0.0 0.0 0.00 0.00 0.00 44 1015.6
20260504004551 75 190 0.0 0.0 0.00 0.00 0.00 43 1015.6
20260504004048 76 196 0.0 0.0 0.00 0.00 0.00 42 1015.7
20260504003543 76 201 0.0 0.0 0.00 0.00 0.00 40 1015.9
20260504003041 76 179 0.0 0.0 0.00 0.00 0.00 40 1015.7
20260504002537 76 225 0.0 0.0 0.00 0.00 0.00 42 1015.8
20260504002035 76 215 0.0 0.0 0.00 0.00 0.00 41 1015.8
20260504001533 77 218 0.0 0.0 0.00 0.00 0.00 41 1015.8
20260504001028 77 184 0.0 0.0 0.00 0.00 0.00 41 1015.8
20260504000526 77 195 0.0 0.0 0.00 0.00 0.00 40 1015.8
20260504000023 77 186 0.0 0.0 0.00 0.00 0.00 40 1016.0
20260503235521 78 160 0.0 0.0 0.00 0.00 0.00 40 1015.9
20260503235018 78 196 0.0 0.0 0.00 0.00 0.00 41 1016.0
20260503234516 78 186 0.0 0.0 0.00 0.00 0.00 39 1015.9
20260503234014 78 180 0.0 0.0 0.00 0.00 0.00 38 1016.1
20260503233510 78 190 0.0 0.0 0.00 0.00 0.00 39 1016.0
20260503233006 78 215 0.0 0.0 0.00 0.00 0.00 40 1016.1
20260503232503 78 224 0.0 0.0 0.00 0.00 0.00 39 1016.4
20260503232001 78 176 0.0 0.0 0.00 0.00 0.00 38 1016.0
20260503231458 79 198 0.0 0.0 0.00 0.00 0.00 39 1016.0
20260503230955 79 171 0.0 0.0 0.00 0.00 0.00 37 1016.1
20260503230451 79 190 0.0 0.0 0.00 0.00 0.00 38 1016.1
20260503225949 79 182 0.0 0.0 0.00 0.00 0.00 38 1016.1
20260503225445 80 178 0.0 0.0 0.00 0.00 0.00 39 1016.3
20260503224941 80 206 0.0 0.9 0.00 0.00 0.00 37 1016.4
20260503224438 80 207 0.0 0.0 0.00 0.00 0.00 38 1016.3
20260503223936 80 183 0.0 0.0 0.00 0.00 0.00 38 1016.3
20260503223434 80 188 0.0 0.0 0.00 0.00 0.00 36 1016.4
20260503222929 80 173 0.9 0.9 0.00 0.00 0.00 38 1016.5
20260503222428 80 189 0.0 0.0 0.00 0.00 0.00 39 1016.4
20260503221926 80 202 0.0 0.0 0.00 0.00 0.00 40 1016.6
20260503221424 80 185 0.9 0.9 0.00 0.00 0.00 37 1016.6
20260503220920 80 218 0.0 0.9 0.00 0.00 0.00 37 1016.8
20260503220416 80 173 0.9 1.7 0.00 0.00 0.00 36 1016.7
20260503215914 80 204 0.9 0.9 0.00 0.00 0.00 35 1016.7
20260503215410 80 235 0.0 0.0 0.00 0.00 0.00 40 1016.8
20260503214908 80 217 0.0 0.0 0.00 0.00 0.00 36 1016.7
20260503214405 80 243 0.0 0.0 0.00 0.00 0.00 37 1016.7
20260503213903 80 185 0.0 0.9 0.00 0.00 0.00 36 1017.0
20260503213401 81 230 0.0 0.9 0.00 0.00 0.00 38 1017.1
20260503212856 81 198 0.0 0.0 0.00 0.00 0.00 38 1017.2
20260503212355 81 172 0.0 0.0 0.00 0.00 0.00 35 1017.3
20260503211851 81 178 0.0 0.0 0.00 0.00 0.00 36 1017.2
20260503211348 81 191 0.0 0.0 0.00 0.00 0.00 36 1017.1
20260503210843 81 172 0.0 0.9 0.00 0.00 0.00 38 1017.5
20260503210341 81 166 0.9 0.9 0.00 0.00 0.00 36 1017.4
20260503205836 81 177 0.0 0.0 0.00 0.00 0.00 37 1017.7
20260503205333 80 200 0.0 0.0 0.00 0.00 0.00 37 1017.6
20260503204829 80 187 0.0 0.0 0.00 0.00 0.00 36 1017.8
20260503204327 80 208 0.0 0.0 0.00 0.00 0.00 36 1017.8
20260503203824 81 174 0.0 0.0 0.00 0.00 0.00 38 1017.9
20260503203321 81 196 0.0 0.0 0.00 0.00 0.00 35 1018.0
20260503202818 80 186 0.0 0.0 0.00 0.00 0.00 36 1018.2
20260503202316 80 191 0.0 0.0 0.00 0.00 0.00 35 1018.3
20260503201814 80 179 0.0 0.9 0.00 0.00 0.00 36 1018.3
20260503201311 81 181 0.9 1.7 0.00 0.00 0.00 35 1018.4
20260503200808 81 201 0.9 1.7 0.00 0.00 0.00 33 1018.6
20260503200304 81 191 0.0 0.9 0.00 0.00 0.00 31 1018.5
20260503195802 81 186 0.0 0.0 0.00 0.00 0.00 34 1018.6
20260503195258 81 191 0.0 0.9 0.00 0.00 0.00 34 1018.7
20260503194755 80 197 0.0 0.0 0.00 0.00 0.00 34 1018.8
20260503194251 81 168 2.6 2.6 0.00 0.00 0.00 35 1018.8
20260503193747 81 239 0.0 0.0 0.00 0.00 0.00 38 1018.8
20260503193243 81 188 0.0 0.0 0.00 0.00 0.00 35 1019.1
20260503192739 81 284 0.0 0.0 0.00 0.00 0.00 37 1018.9
20260503192234 80 203 0.0 0.0 0.00 0.00 0.00 37 1019.1
20260503191731 80 188 0.0 0.0 0.00 0.00 0.00 40 1019.2
20260503191228 80 203 0.0 0.0 0.00 0.00 0.00 39 1019.2
20260503190725 80 176 0.0 0.0 0.00 0.00 0.00 40 1019.4
20260503190221 80 218 0.0 0.0 0.00 0.00 0.00 36 1019.5
20260503185719 80 189 0.0 0.0 0.00 0.00 0.00 39 1019.4
20260503185214 80 174 0.0 0.9 0.00 0.00 0.00 39 1019.5
20260503184709 80 209 0.0 0.0 0.00 0.00 0.00 42 1019.6
20260503184206 80 198 0.0 0.0 0.00 0.00 0.00 41 1019.6
20260503183702 79 191 0.9 0.9 0.00 0.00 0.00 37 1019.7
20260503183159 80 330 0.9 0.9 0.00 0.00 0.00 40 1019.7
20260503182657 80 186 0.0 0.0 0.00 0.00 0.00 41 1020.0
20260503182155 79 166 1.7 1.7 0.00 0.00 0.00 38 1020.0
20260503181652 79 226 0.0 0.9 0.00 0.00 0.00 43 1020.3
20260503181149 79 202 0.0 0.0 0.00 0.00 0.00 40 1020.2
20260503180646 79 175 0.0 0.0 0.00 0.00 0.00 43 1020.3
20260503180144 79 173 0.9 1.7 0.00 0.00 0.00 42 1020.3
20260503175640 79 209 0.0 0.0 0.00 0.00 0.00 42 1020.5
20260503175138 78 167 0.9 0.9 0.00 0.00 0.00 43 1020.6
20260503174634 78 192 0.0 0.0 0.00 0.00 0.00 43 1020.7
20260503174131 78 207 0.0 0.0 0.00 0.00 0.00 43 1020.7
20260503173626 78 166 0.9 1.7 0.00 0.00 0.00 43 1020.9
20260503173123 78 169 0.9 1.7 0.00 0.00 0.00 43 1021.0
20260503172620 78 241 0.9 0.9 0.00 0.00 0.00 47 1021.1
20260503172118 78 201 0.9 0.9 0.00 0.00 0.00 46 1021.3
20260503171614 78 205 0.0 0.0 0.00 0.00 0.00 43 1021.1
20260503171111 78 186 0.0 0.9 0.00 0.00 0.00 46 1021.1
20260503170608 78 194 0.0 0.0 0.00 0.00 0.00 46 1021.2
20260503170105 77 186 0.9 0.9 0.00 0.00 0.00 48 1021.4
20260503151000 72 215 0.0 0.0 0.00 0.00 0.00 52 1021.8
20260503150456 71 199 0.0 0.0 0.00 0.00 0.00 55 1021.7
20260503131343 55 177 0.0 0.0 0.00 0.00 0.00 95 1021.6
20260503130841 54 177 0.0 0.0 0.00 0.00 0.00 95 1021.4
20260503130338 53 177 0.0 0.0 0.00 0.00 0.00 95 1021.4
20260503110732 50 179 0.0 0.0 0.00 0.00 0.00 93 1020.7
20260503110229 50 179 0.0 0.0 0.00 0.00 0.00 93 1020.6
20260503100155 51 179 0.0 0.0 0.00 0.00 0.00 93 1020.6
20260503090115 51 172 0.0 0.0 0.00 0.00 0.00 91 1020.4
20260503081550 52 172 0.0 0.0 0.00 0.00 0.00 89 1020.2
20260503081048 52 172 0.0 0.0 0.00 0.00 0.00 89 1020.2
20260503080544 53 172 0.0 0.0 0.00 0.00 0.00 89 1020.4
20260503072513 54 171 0.0 0.0 0.00 0.00 0.00 86 1020.5
20260503072009 54 171 0.0 0.0 0.00 0.00 0.00 86 1020.4
20260503071506 54 171 0.0 0.0 0.00 0.00 0.00 86 1020.6
20260503071003 54 171 0.0 0.0 0.00 0.00 0.00 85 1020.7
20260503070459 54 171 0.0 0.0 0.00 0.00 0.00 85 1020.8
20260503054912 56 171 0.0 0.0 0.00 0.00 0.00 79 1020.6
20260503054408 56 171 0.0 0.0 0.00 0.00 0.00 79 1020.6
20260503053906 57 171 0.0 0.0 0.00 0.00 0.00 78 1020.2
20260503053404 57 171 0.0 0.0 0.00 0.00 0.00 77 1020.3
20260503052859 57 171 0.0 0.0 0.00 0.00 0.00 77 1020.3
20260503052357 57 171 0.0 0.0 0.00 0.00 0.00 76 1020.4
20260503051853 58 171 0.0 0.0 0.00 0.00 0.00 76 1020.4
20260503051349 58 171 0.0 0.0 0.00 0.00 0.00 75 1020.3
20260503050846 58 171 0.0 0.0 0.00 0.00 0.00 74 1020.2
20260503050343 59 171 0.0 0.0 0.00 0.00 0.00 74 1020.4
20260503045840 59 171 0.0 0.0 0.00 0.00 0.00 73 1020.2
20260503045338 59 171 0.0 0.0 0.00 0.00 0.00 72 1020.1
20260503044834 60 171 0.0 0.0 0.00 0.00 0.00 71 1020.3
20260503044331 60 171 0.0 0.0 0.00 0.00 0.00 69 1020.2
20260503043828 60 171 0.0 0.0 0.00 0.00 0.00 68 1020.2
20260503043325 60 171 0.0 0.0 0.00 0.00 0.00 68 1020.2
20260503042821 60 171 0.0 0.0 0.00 0.00 0.00 69 1020.3
20260503042318 60 171 0.0 0.0 0.00 0.00 0.00 67 1020.3
20260503041814 60 167 0.0 0.0 0.00 0.00 0.00 69 1020.1
20260503041312 60 167 0.0 0.0 0.00 0.00 0.00 69 1020.3
20260503040809 60 166 0.0 0.0 0.00 0.00 0.00 70 1020.3
20260503040307 60 167 0.0 0.0 0.00 0.00 0.00 70 1020.3
20260503035803 60 166 0.0 0.0 0.00 0.00 0.00 69 1020.5
20260503035301 60 164 0.0 0.0 0.00 0.00 0.00 70 1020.1
20260503034758 60 163 0.0 0.0 0.00 0.00 0.00 69 1020.1
20260503034255 60 178 0.0 0.0 0.00 0.00 0.00 71 1020.1
20260503033752 60 178 0.0 0.0 0.00 0.00 0.00 71 1020.0
20260503033250 59 185 0.0 0.0 0.00 0.00 0.00 73 1020.0